Austin, MN

8:18 PM CDT on May 25, 2017 (GMT -0500)
Austin Municipal

Weather History for KAUM - February, 2014

Change the Weather History Date:

Sunday, February 23, 2014

  Actual Average Record
Temperature  
Mean Temperature 6 °F -  
Max Temperature 12 °F 30 °F 53 °F (2002)
Min Temperature 0 °F 16 °F -11 °F (2015)
Degree Days  
Heating Degree Days 59    
Moisture  
Dew Point 2 °F    
Average Humidity 78    
Maximum Humidity 92    
Minimum Humidity 67    
Precipitation  
Precipitation 0.00 in - - ()
Sea Level Pressure  
Sea Level Pressure 30.22 in    
Wind  
Wind Speed 10 mph (WNW)    
Max Wind Speed 20 mph    
Max Gust Speed 25 mph    
Visibility 10 miles    
Events      
Averages and records for this station are not official NWS values.
T = Trace of Precipitation, MM = Missing Value Source: NWS Daily Summary

Daily Weather History Graph

Daily Weather History Graph

Search for Another Location

Airport or City:

Trip Planner

Search our weather history database for the weather conditions in past years. The results will help you decide how hot, cold, wet, or windy it might be!

Date:

Astronomy

Feb. 23, 2014 Rise Set
Actual Time 6:58 AM CST 5:52 PM CST
Civil Twilight 6:29 AM CST 6:21 PM CST
Nautical Twilight 5:55 AM CST 6:55 PM CST
Astronomical Twilight 5:22 AM CST 7:28 PM CST
Moon 2:02 AM CST (2/23) 11:49 AM CST (2/23)
Length of Visible Light 11h 52m
Length of Day
10h 54m
Last Quarter, 38% of the Moon is Illuminated
Feb 23
Last Quarter
Mar 1
New
Mar 8
First Quarter
Mar 16
Full
Mar 23
Last Quarter

Hourly Weather History & Observations

Time (CST) Temp. Windchill Dew Point Humidity Pressure Visibility Wind Dir Wind Speed Gust Speed Precip Events Conditions
12:15 AM 3.2 °F -9.1 °F 1.4 °F 92% 30.12 in 10.0 mi WNW 6.9 mph - N/A   Clear
12:35 AM 5.0 °F -8.1 °F 1.4 °F 85% 30.12 in 10.0 mi NW 8.1 mph - N/A   Clear
12:55 AM 6.8 °F -7.8 °F 1.4 °F 79% 30.12 in 10.0 mi WNW 10.4 mph - N/A   Clear
1:15 AM 6.8 °F -8.6 °F 1.4 °F 79% 30.13 in 10.0 mi NW 11.5 mph - N/A   Clear
1:35 AM 6.8 °F -9.3 °F 1.4 °F 79% 30.13 in 10.0 mi NW 12.7 mph - N/A   Clear
1:55 AM 5.0 °F -11.6 °F 1.4 °F 85% 30.14 in 10.0 mi NW 12.7 mph - N/A   Clear
2:15 AM 5.0 °F -10.0 °F 1.4 °F 85% 30.15 in 10.0 mi NW 10.4 mph - N/A   Clear
2:35 AM 5.0 °F -11.6 °F -0.4 °F 78% 30.16 in 10.0 mi NW 12.7 mph - N/A   Clear
2:55 AM 5.0 °F -10.0 °F -0.4 °F 78% 30.16 in 10.0 mi NW 10.4 mph - N/A   Clear
3:15 AM 3.2 °F -12.2 °F -0.4 °F 85% 30.16 in 10.0 mi NW 10.4 mph - N/A   Clear
3:35 AM 3.2 °F -11.3 °F -0.4 °F 85% 30.16 in 10.0 mi NW 9.2 mph - N/A   Clear
3:55 AM 1.4 °F -9.9 °F -2.2 °F 85% 30.16 in 10.0 mi NW 5.8 mph - N/A   Clear
4:15 AM 1.4 °F -8.3 °F -2.2 °F 85% 30.17 in 10.0 mi NW 4.6 mph - N/A   Clear
4:35 AM 1.4 °F -11.3 °F -2.2 °F 85% 30.17 in 10.0 mi WNW 6.9 mph - N/A   Clear
4:55 AM 1.4 °F -11.3 °F -2.2 °F 85% 30.18 in 10.0 mi West 6.9 mph - N/A   Clear
5:14 AM 1.4 °F -9.9 °F -2.2 °F 85% 30.19 in 10.0 mi WNW 5.8 mph - N/A   Clear
5:35 AM 1.4 °F -9.9 °F -2.2 °F 85% 30.18 in 10.0 mi WNW 5.8 mph - N/A   Clear
5:55 AM 1.4 °F -9.9 °F -4.0 °F 78% 30.19 in 10.0 mi WNW 5.8 mph - N/A   Clear
6:14 AM -0.4 °F -10.4 °F -5.8 °F 78% 30.18 in 10.0 mi NW 4.6 mph - N/A   Clear
6:35 AM -0.4 °F -10.4 °F -4.0 °F 85% 30.18 in 10.0 mi WNW 4.6 mph - N/A   Clear
6:55 AM 1.4 °F -6.2 °F -4.0 °F 78% 30.18 in 10.0 mi WNW 3.5 mph - N/A   Clear
7:14 AM 1.4 °F -9.9 °F -2.2 °F 85% 30.19 in 10.0 mi West 5.8 mph - N/A   Clear
7:35 AM 1.4 °F -12.5 °F -2.2 °F 85% 30.21 in 10.0 mi West 8.1 mph - N/A   Clear
7:55 AM 3.2 °F -11.3 °F -2.2 °F 78% 30.22 in 10.0 mi West 9.2 mph - N/A   Clear
8:15 AM 3.2 °F -12.2 °F -0.4 °F 85% 30.23 in 10.0 mi West 10.4 mph - N/A   Clear
8:35 AM 5.0 °F -9.1 °F -0.4 °F 78% 30.23 in 10.0 mi West 9.2 mph - N/A   Clear
8:55 AM 6.8 °F -7.8 °F -0.4 °F 72% 30.23 in 10.0 mi West 10.4 mph - N/A   Clear
9:15 AM 6.8 °F -9.3 °F -0.4 °F 72% 30.23 in 10.0 mi WNW 12.7 mph 18.4 mph N/A   Clear
9:35 AM 6.8 °F -9.3 °F -0.4 °F 72% 30.23 in 10.0 mi WNW 12.7 mph 18.4 mph N/A   Clear
9:55 AM 6.8 °F -11.3 °F 1.4 °F 79% 30.23 in 10.0 mi WNW 16.1 mph - N/A   Clear
10:15 AM 8.6 °F -8.9 °F 1.4 °F 73% 30.24 in 10.0 mi WNW 16.1 mph 25.3 mph N/A   Clear
10:35 AM 8.6 °F -8.9 °F 1.4 °F 73% 30.23 in 10.0 mi WNW 16.1 mph 23.0 mph N/A   Clear
10:55 AM 8.6 °F -9.5 °F 1.4 °F 73% 30.24 in 10.0 mi WNW 17.3 mph - N/A   Clear
11:15 AM 8.6 °F -7.7 °F 1.4 °F 73% 30.24 in 10.0 mi WNW 13.8 mph 23.0 mph N/A   Clear
11:35 AM 8.6 °F -10.0 °F 1.4 °F 73% 30.25 in 10.0 mi WNW 18.4 mph - N/A   Clear
11:55 AM 8.6 °F -10.5 °F 1.4 °F 73% 30.24 in 10.0 mi WNW 19.6 mph - N/A   Clear
12:15 PM 10.4 °F -6.0 °F 1.4 °F 67% 30.24 in 10.0 mi WNW 15.0 mph - N/A   Clear
12:35 PM 10.4 °F -6.6 °F 1.4 °F 67% 30.24 in 10.0 mi WNW 16.1 mph 23.0 mph N/A   Clear
12:55 PM 10.4 °F -7.7 °F 1.4 °F 67% 30.24 in 10.0 mi WNW 18.4 mph 24.2 mph N/A   Clear
1:15 PM 10.4 °F -7.7 °F 1.4 °F 67% 30.23 in 10.0 mi WNW 18.4 mph - N/A   Clear
1:35 PM 10.4 °F -6.6 °F 3.2 °F 73% 30.23 in 10.0 mi WNW 16.1 mph - N/A   Clear
1:55 PM 12.2 °F -2.5 °F 3.2 °F 67% 30.23 in 10.0 mi WNW 12.7 mph 20.7 mph N/A   Clear
2:15 PM 12.2 °F -2.5 °F 3.2 °F 67% 30.23 in 10.0 mi West 12.7 mph - N/A   Clear
2:35 PM 12.2 °F -3.1 °F 3.2 °F 67% 30.23 in 10.0 mi West 13.8 mph 20.7 mph N/A   Clear
2:53 PM 12.2 °F -4.3 °F 3.2 °F 67% 30.24 in 10.0 mi West 16.1 mph 21.9 mph N/A   Clear
3:15 PM 12.2 °F -4.3 °F 3.2 °F 67% 30.23 in 10.0 mi West 16.1 mph - N/A   Unknown
3:35 PM 12.2 °F -3.7 °F 3.2 °F 67% 30.23 in 10.0 mi WNW 15.0 mph - N/A   Unknown
3:55 PM 12.2 °F -3.1 °F 3.2 °F 67% 30.24 in 10.0 mi West 13.8 mph - N/A   Clear
4:15 PM 12.2 °F -3.7 °F 5.0 °F 73% 30.24 in 10.0 mi WNW 15.0 mph - N/A   Clear
4:35 PM 12.2 °F -3.7 °F 5.0 °F 73% 30.23 in 10.0 mi WNW 15.0 mph 20.7 mph N/A   Clear
4:55 PM 12.2 °F -3.1 °F 5.0 °F 73% 30.23 in 10.0 mi West 13.8 mph 20.7 mph N/A   Clear
5:15 PM 12.2 °F -1.8 °F 6.8 °F 79% 30.24 in 10.0 mi West 11.5 mph 19.6 mph N/A   Clear
5:35 PM 12.2 °F -2.5 °F 6.8 °F 79% 30.24 in 10.0 mi West 12.7 mph - N/A   Clear
5:54 PM 12.2 °F -1.0 °F 6.8 °F 79% 30.24 in 10.0 mi West 10.4 mph - N/A   Clear
6:15 PM 10.4 °F -1.5 °F 6.8 °F 85% 30.24 in 10.0 mi West 8.1 mph - N/A   Clear
6:35 PM 10.4 °F -2.4 °F 6.8 °F 85% 30.25 in 10.0 mi West 9.2 mph - N/A   Clear
6:54 PM 10.4 °F -1.5 °F 5.0 °F 79% 30.25 in 10.0 mi West 8.1 mph - N/A   Clear
7:15 PM 10.4 °F 0.8 °F 5.0 °F 79% 30.25 in 10.0 mi West 5.8 mph - N/A   Clear
7:35 PM 10.4 °F -0.4 °F 5.0 °F 79% 30.25 in 10.0 mi West 6.9 mph - N/A   Clear
7:54 PM 8.6 °F -2.6 °F 5.0 °F 85% 30.25 in 10.0 mi West 6.9 mph - N/A   Clear
8:15 PM 8.6 °F -2.6 °F 5.0 °F 85% 30.25 in 10.0 mi West 6.9 mph - N/A   Clear
8:35 PM 8.6 °F -2.6 °F 5.0 °F 85% 30.25 in 10.0 mi West 6.9 mph - N/A   Clear
8:54 PM 8.6 °F -3.7 °F 5.0 °F 85% 30.25 in 10.0 mi West 8.1 mph - N/A   Clear
9:15 PM 10.4 °F -1.5 °F 5.0 °F 79% 30.25 in 10.0 mi West 8.1 mph - N/A   Clear
9:35 PM 8.6 °F -2.6 °F 3.2 °F 79% 30.25 in 10.0 mi WNW 6.9 mph - N/A   Clear
9:55 PM 8.6 °F -3.7 °F 3.2 °F 79% 30.25 in 10.0 mi WNW 8.1 mph - N/A   Clear
10:15 PM 8.6 °F -2.6 °F 3.2 °F 79% 30.25 in 10.0 mi WNW 6.9 mph - N/A   Clear
10:35 PM 8.6 °F -4.7 °F 3.2 °F 79% 30.26 in 10.0 mi WNW 9.2 mph - N/A   Clear
10:55 PM 8.6 °F -6.3 °F 3.2 °F 79% 30.26 in 10.0 mi WNW 11.5 mph - N/A   Clear
11:15 PM 8.6 °F -5.5 °F 3.2 °F 79% 30.26 in 10.0 mi WNW 10.4 mph - N/A   Clear
11:35 PM 8.6 °F -6.3 °F 3.2 °F 79% 30.26 in 10.0 mi WNW 11.5 mph - N/A   Clear
11:55 PM 8.6 °F -5.5 °F 3.2 °F 79% 30.25 in 10.0 mi NW 10.4 mph - N/A   Clear